User: anonymous   Login
Location: Carabito
(9.8355°N, 67.9249°W)
Time: 19:59:44
(UTC+00:00)
Language:

Nadezhda 3 Rocket - Orbit

View from above orbital plane
View from above orbital plane
View from above satellite
View from above satellite

Ground track
Ground track

The orbit data is extracted from the following two-line orbital elements,

1 21153U 91019B   24199.60181483  .00000173  00000-0  16116-3 0  9997
2 21153  82.9240  77.6819 0030198 120.3789 303.6420 13.76192893674226
Epoch (UTC): 17 July 2024 14:26:36
Eccentricity: 0.0030198
inclination: 82.9240°
perigee height: 955 km
apogee height: 999 km
right ascension of ascending node: 77.6819°
argument of perigee: 120.3789°
revolutions per day: 13.76192893
mean anomaly at epoch: 303.6420°
orbit number at epoch: 67422

The dashed part of the orbit path shows where the satellite is in the earth's shadow,  

DLR